Home > Weather > Oviedo > Past weeks

Flag for Spain Past Weather in Oviedo, Spain — Yesterday and Last 2 Weeks

Now
63 °F

Drizzle. Cloudy.


Feels Like: 63 °F
Forecast: 57 / 67 °F
Wind: 5 mph from North

Location: Oviedo

Current Time: Jul 1, 2016 at 7:20:27 PM

Latest Report: Jul 1, 2016 at 6:00 PM


Visibility: 9 mi

Pressure: 30.16 "Hg

Humidity: 89%

Dew Point: 60 °F

Location of OviedoLocation

Past Weather in Oviedo — Graph

°F

Oviedo Temperature Yesterday

Maximum temperature yesterday: 72 °F (at 3:00 PM)
Minimum temperature yesterday: 59 °F (at 3:00 AM)
Average temperature yesterday: 64 °F

High & Low Weather Summary for the Past Weeks

 TemperatureHumidityPressure
High80 °F (Jun 21, 5:00 PM)100% (Jun 17, 9:00 AM)30.48 "Hg (Jun 17, 9:00 AM)
Low51 °F (Jun 18, 4:00 AM)57% (Jun 20, 5:00 PM)29.87 "Hg (Jun 16, 6:00 PM)
Average62 °F87%30.18 "Hg
* Reported Jun 16 6:00 PM — Jul 1 6:00 PM, Oviedo, Weather by CustomWeather, © 2016

Note: Actual official high and low records may vary slightly from our data, if they occured in-between our weather recording intervals... More about our weather records

Advertising

Oviedo Weather History for the Previous 24 Hours

Scroll right to see more
 ConditionsComfort  
Time TempWeatherWind HumidityBarometerVisibility
6:00 PM
Fri, Jul 1
63 °FDrizzle. Cloudy.5 mph89%30.16 "Hg9 mi
5:00 PM64 °FFog.6 mph85%30.14 "Hg5 mi
4:00 PM65 °FMild.5 mph86%30.14 "Hg11 mi
3:00 PM65 °FMild.2 mph83%30.14 "Hg11 mi
2:00 PM64 °FFog.5 mph87%30.15 "Hg5 mi
1:00 PM66 °FMild.6 mph85%30.14 "Hg12 mi
12:00 PM64 °FMild.5 mph87%30.14 "Hg11 mi
11:00 AM63 °FFog.2 mph89%30.14 "Hg4 mi
10:00 AM63 °FMild.5 mph88%30.13 "Hg11 mi
9:00 AM62 °FCool.5 mph93%30.12 "Hg10 mi
8:00 AM62 °FFog.3 mph94%30.11 "Hg2 mi
7:00 AM61 °FCool.1 mph97%30.11 "Hg6 mi
6:00 AM61 °FCool.2 mph97%30.11 "Hg9 mi
5:00 AM62 °FFog.2 mph94%30.11 "Hg4 mi
4:00 AM62 °FCool.1 mph92%30.11 "Hg10 mi
3:00 AM62 °FCool.1 mph89%30.12 "Hg11 mi
2:00 AM62 °FOvercast.2 mph90%30.13 "Hg6 mi
1:00 AM63 °FMild.No wind89%30.14 "Hg12 mi
12:00 AM63 °FMild.2 mph86%30.14 "Hg12 mi
11:00 PM
Thu, Jun 30
64 °FOvercast.3 mph85%30.14 "Hg6 mi
10:00 PM64 °FMild.6 mph83%30.12 "Hg12 mi
9:00 PM65 °FMild.8 mph82%30.11 "Hg11 mi
8:00 PM69 °FOvercast.3 mph77%30.09 "Hg11 mi
7:00 PM70 °FMild.2 mph75%30.08 "Hg12 mi
Weather by CustomWeather, © 2016

See weather overviewHow to use our weather pages